GFSCGP_sfc_dewp_150.txt.gz
Dewpoint
18 17 17 17 20 22 24 19 18 19 18 20 32 34 38 43 43 45 49 51 51 52 54 57 57 60 62 65 70 72 74 77 75 73 73 72 71 73 74 73 75 77 75 75
13 12 15 17 18 18 22 20 19 19 18 19 29 33 34 37 42 45 47 51 51 52 55 57 59 60 62 65 70 72 74 77 75 74 75 75 75 73 73 71 71 74 75 75
11 13 13 17 21 19 19 20 21 19 18 17 22 29 35 35 38 43 46 50 51 52 54 59 61 61 61 64 68 71 74 75 76 75 75 77 77 76 72 66 66 64 73 66
9 15 13 19 21 20 21 20 19 20 19 15 19 19 37 35 36 41 43 48 49 51 55 60 61 63 63 64 68 71 74 75 75 77 75 76 75 74 71 67 66 66 75 75
13 14 17 20 21 21 22 22 19 18 18 20 20 17 30 36 36 36 41 45 47 52 52 55 58 63 63 64 66 71 75 76 77 76 77 75 75 73 74 70 73 75 77 77
16 15 24 22 21 20 20 21 22 18 16 17 21 19 29 29 37 36 37 43 46 49 51 56 59 63 64 64 65 70 75 77 77 78 77 77 78 78 77 77 72 73 71 74
19 18 21 21 21 21 19 20 19 19 17 17 23 19 32 29 33 34 38 40 44 48 50 54 59 62 64 64 65 69 75 76 77 77 77 77 78 78 78 77 73 72 71 72
19 19 21 21 20 21 19 19 20 25 20 17 27 23 25 35 35 35 34 37 41 45 49 51 55 61 62 63 66 68 75 76 77 77 77 78 79 76 76 77 74 74 72 72
21 20 21 17 19 21 23 21 19 20 22 22 24 28 33 34 32 32 34 33 37 44 46 52 53 56 59 60 64 66 74 75 76 76 77 77 78 78 75 79 78 75 76 69
23 23 20 17 18 18 21 23 19 21 29 24 19 28 26 35 32 37 39 39 41 48 47 51 52 55 57 58 62 65 73 75 76 75 76 76 77 78 78 79 78 77 73 73
19 22 23 20 20 18 19 20 23 19 20 24 26 30 40 40 35 37 39 40 46 47 48 51 52 54 56 55 59 63 69 74 74 75 76 76 76 78 78 77 76 74 74 73
21 19 24 19 20 19 19 21 25 24 31 28 24 25 28 30 28 28 33 43 47 49 47 54 55 59 57 64 57 59 69 72 74 75 75 75 75 73 73 75 72 73 72 72
24 22 20 23 20 22 19 20 21 24 28 35 25 26 31 32 34 34 32 36 48 52 56 58 65 66 66 65 64 66 68 70 73 65 74 73 72 71 69 67 70 72 72 70
35 22 29 17 26 24 25 18 20 24 27 28 29 32 35 34 37 38 39 40 43 56 58 66 69 66 68 70 73 72 69 71 71 71 70 68 67 69 68 71 72 71 71 70
22 35 28 19 19 21 22 20 20 23 25 26 28 35 41 44 44 42 43 47 48 52 59 63 67 66 65 70 69 70 68 70 69 68 68 67 68 70 70 71 71 71 71 70
20 33 31 24 19 20 22 21 21 19 20 25 25 36 42 46 40 41 43 43 46 51 54 64 68 68 66 67 69 68 68 68 69 67 66 67 69 70 71 71 70 70 70 69
30 30 35 28 23 22 23 23 22 22 24 23 25 39 43 38 39 42 43 43 46 52 60 66 67 67 68 67 67 65 66 66 66 66 66 67 68 66 67 67 67 66 67 68
39 46 36 28 33 26 25 24 23 25 25 26 37 41 46 49 48 49 48 45 54 59 61 64 64 65 65 65 65 65 63 64 63 64 64 65 66 65 66 66 66 67 66 65
27 38 30 30 26 27 24 26 25 26 27 27 42 43 43 48 51 52 53 59 61 63 63 64 64 64 64 63 64 63 63 62 61 62 63 64 64 64 64 64 65 65 65 64
29 42 33 33 28 28 36 29 31 30 33 40 43 43 42 46 43 53 60 60 62 62 63 62 62 61 62 64 64 64 63 63 62 62 63 64 64 64 64 64 65 66 64 63
37 42 35 34 30 28 34 33 34 34 40 41 43 47 46 46 52 60 60 59 59 60 61 61 61 61 63 64 64 62 63 62 62 63 62 63 63 64 64 64 64 63 63 63
38 41 35 39 37 34 36 34 38 52 52 47 48 50 58 59 58 58 59 59 57 57 55 56 60 61 63 64 63 62 61 62 61 61 61 62 62 62 60 63 63 64 63 63
39 41 38 43 43 55 51 51 50 50 51 47 48 57 59 57 57 58 58 58 57 57 58 57 57 61 62 60 60 59 60 60 60 60 61 61 61 62 63 62 62 62 61 61
43 44 40 48 46 48 45 48 50 52 49 46 53 54 55 56 57 56 57 57 58 57 56 57 56 57 57 58 58 57 59 58 57 57 58 59 59 58 59 58 58 59 57 58
36 48 51 48 52 50 49 49 48 49 52 52 53 53 55 57 56 57 57 59 58 57 57 57 57 57 57 57 57 57 56 55 52 53 55 56 55 56 57 58 58 57 62 59
39 45 45 45 53 52 54 54 49 52 52 52 53 55 55 55 56 56 56 56 56 55 56 56 56 55 54 53 55 56 55 55 53 54 52 53 54 56 55 56 57 54 52 52

GFSCGP_sfc_dewp_153.txt.gz
Dewpoint
18 18 19 24 23 24 23 24 21 20 20 31 41 43 43 46 48 49 50 51 52 53 56 58 59 61 63 67 68 68 68 71 71 73 71 71 69 71 72 71 71 68 68 69
16 16 18 21 19 18 21 23 21 20 19 33 38 41 43 44 47 48 49 51 51 52 55 56 58 60 62 65 67 69 69 72 72 72 72 72 72 71 69 69 70 70 68 66
13 15 15 13 15 24 20 23 23 19 19 20 33 35 40 43 45 48 50 51 52 52 54 55 57 59 61 65 68 68 70 72 72 72 72 73 73 72 69 69 66 69 66 62
12 12 12 13 20 19 21 23 22 18 18 15 20 31 36 36 43 46 49 50 51 52 54 56 57 59 61 63 67 69 70 71 74 72 72 71 70 69 69 68 67 64 67 70
14 11 10 16 21 21 21 25 24 24 21 35 21 23 34 35 37 44 48 50 51 53 55 56 57 58 59 62 66 69 70 72 71 73 71 71 71 70 71 68 66 66 65 70
12 13 13 19 23 23 24 27 24 19 17 17 19 21 34 35 36 41 47 49 50 52 55 57 58 61 61 63 64 67 71 71 73 72 73 73 72 70 72 71 67 69 70 74
16 14 15 23 23 23 21 29 23 22 19 20 21 22 31 35 38 37 42 48 49 52 54 58 59 61 61 62 64 67 71 72 73 75 73 72 73 75 74 72 68 67 68 72
22 18 19 22 22 23 23 19 23 23 22 22 23 24 34 37 38 37 38 41 47 50 53 56 58 60 61 61 64 67 72 72 74 73 75 74 74 75 75 74 71 70 66 68
21 22 22 22 21 21 25 19 22 17 19 23 26 34 36 36 34 35 33 36 44 49 52 54 57 60 61 61 63 66 71 72 74 74 74 75 75 75 73 73 74 73 69 69
25 26 22 21 19 19 23 25 24 23 25 24 27 32 34 33 33 39 38 40 42 47 50 54 57 60 61 61 63 66 71 72 74 74 75 75 75 75 75 74 72 71 68 66
21 24 23 23 18 18 19 23 26 24 27 24 30 31 42 41 41 40 39 44 49 51 51 52 55 60 61 63 63 62 64 69 73 73 72 73 73 73 70 70 70 71 68 67
22 23 24 24 23 20 20 19 26 28 26 29 31 32 30 30 29 32 41 43 44 58 61 60 58 63 64 64 62 61 60 63 66 70 68 68 68 68 68 68 66 69 66 66
25 22 20 21 22 20 18 21 26 29 30 28 31 30 34 34 36 37 38 43 50 61 61 61 62 64 63 62 63 64 63 64 65 70 69 67 63 63 66 67 68 66 65 66
40 26 25 19 26 24 23 22 21 21 25 28 28 31 34 39 37 38 44 46 47 62 62 61 61 62 63 63 64 66 65 64 65 66 64 63 64 66 67 66 67 67 67 67
25 28 29 23 21 20 23 21 19 19 28 25 26 31 41 43 44 46 46 48 51 65 66 64 63 63 61 63 67 67 62 62 66 66 66 66 66 65 66 66 67 68 68 67
24 30 29 31 24 19 17 23 22 19 22 26 34 37 41 45 44 45 46 48 58 66 66 66 64 64 64 68 67 67 67 66 66 65 64 65 64 63 64 64 64 64 64 64
28 33 33 26 28 26 24 24 25 22 24 23 30 41 42 43 46 45 46 49 63 64 65 65 65 66 64 64 63 62 62 61 61 61 62 63 63 63 63 64 64 64 64 63
37 39 38 29 38 24 26 29 27 25 25 34 42 44 49 50 50 47 47 60 62 62 62 62 61 61 61 61 61 61 60 59 61 61 61 62 62 62 62 62 62 62 62 62
33 36 34 32 28 29 29 25 30 30 37 42 45 48 50 51 55 60 62 62 62 62 61 61 61 61 61 60 61 61 60 61 60 60 61 62 62 62 62 62 61 62 62 61
31 34 33 36 29 24 29 34 31 33 40 44 46 49 50 52 54 58 60 60 61 61 61 60 61 61 61 61 61 60 61 60 60 60 60 60 61 61 60 61 61 61 61 61
38 35 31 35 32 30 36 40 36 29 36 45 47 50 51 51 57 59 59 59 59 60 60 60 61 61 61 61 61 61 59 59 59 58 59 59 59 59 59 59 60 60 60 61
43 40 38 36 33 31 39 35 36 45 47 50 52 56 58 58 58 58 57 56 56 57 59 60 61 60 59 59 59 58 57 58 58 57 58 58 58 58 59 59 60 60 60 59
39 41 39 42 35 52 49 47 53 49 55 55 56 57 57 57 57 56 56 57 57 58 58 59 60 58 58 57 57 56 56 56 55 55 55 55 56 57 57 56 57 58 57 57
43 45 43 43 50 49 48 51 52 51 56 56 57 56 57 56 57 56 56 57 57 57 56 57 56 57 57 57 56 56 55 54 52 51 51 53 55 53 55 57 56 56 57 56
33 46 50 51 52 52 53 53 53 56 57 57 57 57 57 56 56 57 58 57 57 57 57 57 56 55 54 54 55 54 53 53 50 50 50 51 52 53 55 54 55 56 55 53
45 49 46 52 54 53 53 53 53 54 54 56 56 56 56 56 57 57 56 57 56 56 56 55 53 52 51 53 52 51 51 50 48 48 52 53 53 55 54 53 52 52 51 48

GFSCGP_sfc_dewp_156.txt.gz
Dewpoint
18 17 17 20 25 25 25 25 23 26 40 43 43 46 48 50 50 50 54 58 58 58 59 61 62 63 64 64 64 65 65 65 69 70 70 70 70 70 70 70 70 71 71 69
14 14 16 20 21 23 22 19 22 22 41 42 43 45 47 49 49 49 51 53 55 56 58 59 61 63 65 65 66 66 66 66 69 70 71 70 70 70 70 69 70 70 70 69
12 12 18 17 16 15 14 20 20 17 30 40 42 42 45 47 49 49 50 51 53 55 56 57 59 61 65 65 66 66 67 68 69 71 71 71 72 71 68 68 67 70 69 67
12 12 13 14 13 13 17 26 23 19 17 30 37 35 41 44 47 48 49 50 51 53 55 57 57 59 63 65 66 66 68 70 71 71 71 70 70 69 69 68 66 66 67 65
13 14 11 12 10 17 18 26 21 21 19 19 24 31 36 43 45 47 48 50 51 52 54 55 56 58 60 64 65 66 68 68 71 71 70 70 70 69 69 70 66 62 63 65
14 16 12 11 11 18 25 24 25 20 17 14 16 18 23 38 42 45 48 50 50 52 53 55 56 57 60 61 64 66 68 69 70 71 70 70 71 71 71 71 70 66 65 64
18 17 12 15 20 23 21 21 20 20 15 16 18 20 22 35 39 45 47 50 50 51 53 55 55 56 59 60 64 66 68 68 70 71 72 71 71 71 70 70 70 68 67 71
19 19 18 19 22 20 21 20 21 16 18 17 24 20 22 36 36 44 47 49 50 51 53 54 55 56 57 60 62 65 68 68 70 71 71 72 72 73 73 73 72 70 69 70
22 20 23 21 21 22 21 20 21 18 26 19 23 31 34 37 37 36 41 47 50 51 53 56 56 57 58 60 64 66 69 68 71 71 73 73 74 74 72 72 72 71 70 71
23 19 20 20 23 25 20 21 21 20 20 16 26 31 31 34 34 35 39 43 49 51 53 56 58 60 62 64 66 70 71 72 72 68 66 66 69 70 72 71 69 70 70 69
18 25 21 26 21 18 17 21 21 21 24 20 27 29 36 35 39 40 45 50 54 51 52 55 60 62 65 65 65 66 68 69 68 66 67 65 66 68 69 69 67 67 68 68
19 21 18 19 23 20 17 16 19 22 19 28 28 29 35 40 39 42 48 57 60 59 54 59 63 65 66 65 61 63 64 67 67 66 63 62 62 65 67 68 67 66 64 65
22 20 17 18 20 21 17 17 23 26 26 22 24 28 33 35 38 43 52 59 59 60 61 62 63 64 63 61 63 64 64 66 68 67 65 64 65 64 66 65 66 67 66 67
36 21 19 17 20 22 19 18 22 22 22 22 28 29 32 34 35 45 52 60 59 59 61 61 60 61 61 64 66 65 64 65 67 68 65 64 64 64 64 65 67 66 66 67
24 22 23 20 21 24 22 20 20 20 20 19 20 28 31 36 44 49 58 60 59 60 59 60 59 60 63 66 63 62 62 64 66 65 64 64 64 64 65 66 66 66 64 64
26 23 27 23 24 20 18 19 22 20 26 27 29 28 37 42 45 52 62 64 62 62 61 61 61 62 66 66 65 66 65 66 66 65 65 65 66 66 65 63 63 62 63 63
25 25 23 20 22 25 25 23 22 23 22 26 34 36 43 42 43 59 64 64 64 62 62 62 62 64 65 63 63 63 63 63 63 63 63 62 62 61 61 61 61 61 61 62
29 25 24 19 25 17 21 26 26 26 26 25 39 42 43 46 51 60 64 64 64 63 63 62 61 60 59 60 59 59 60 60 60 60 61 61 61 60 61 60 60 60 61 61
32 33 33 26 22 22 26 28 23 26 31 43 44 47 55 59 61 61 63 63 63 61 60 60 59 59 59 59 60 60 60 60 59 59 58 59 60 59 59 59 59 60 60 60
32 29 25 32 24 21 26 29 32 37 32 47 46 50 54 52 53 58 62 61 61 60 59 59 59 59 59 60 60 59 58 57 56 57 57 58 58 57 57 58 58 58 58 59
32 32 26 35 26 28 33 29 32 27 31 46 46 48 48 48 55 60 60 60 59 59 59 60 60 59 59 60 59 57 56 55 55 56 56 56 56 56 57 57 57 57 58 57
34 31 29 33 31 27 36 35 28 36 45 47 51 56 58 58 58 57 58 58 58 59 60 59 57 57 57 58 57 55 54 54 54 53 53 53 53 55 56 55 55 56 55 55
36 35 37 32 33 36 48 32 47 46 48 51 53 59 58 57 56 55 55 57 58 60 59 58 57 56 55 55 55 53 51 52 51 50 51 51 53 53 54 54 54 55 55 54
38 43 41 37 48 45 49 50 50 48 50 53 58 58 57 55 54 55 55 55 56 57 57 57 56 55 54 54 53 52 51 51 49 49 50 50 51 53 54 54 55 54 53 54
33 40 46 48 49 48 51 53 56 57 57 58 58 57 56 55 55 55 55 55 55 56 56 55 53 53 52 51 50 50 49 49 48 47 49 52 53 53 53 51 54 53 54 52
40 38 44 46 49 47 51 57 57 56 57 57 57 56 56 56 55 55 55 55 55 54 53 52 50 52 50 49 48 48 48 48 48 49 52 53 53 53 50 50 51 50 48 46

GFSCGP_sfc_dewp_159.txt.gz
Dewpoint
16 14 18 25 25 26 27 25 24 39 40 44 45 48 52 57 59 58 58 60 60 61 62 63 64 64 65 63 63 62 62 64 67 68 67 67 67 69 71 70 71 70 70 69
12 12 17 21 23 24 23 22 19 20 38 42 44 46 51 52 53 55 58 59 59 59 61 62 62 63 63 62 61 62 63 64 66 67 69 69 69 70 71 70 70 70 70 70
11 12 17 17 19 17 15 14 14 17 41 43 43 44 47 50 51 51 57 58 59 59 59 60 61 62 63 62 62 63 64 64 66 68 70 70 71 71 69 68 68 68 70 69
12 13 13 17 14 14 13 14 16 35 38 37 42 38 44 47 48 49 50 54 57 58 58 59 60 62 62 63 64 64 65 65 66 69 69 70 70 68 69 69 68 67 67 68
12 13 13 12 11 13 11 21 24 35 26 35 38 33 38 46 46 48 49 50 52 55 57 58 59 61 63 64 64 66 66 67 68 69 69 69 69 69 69 69 68 67 65 64
14 18 13 11 17 13 14 27 23 21 17 15 33 27 24 43 44 47 49 49 50 52 55 57 59 60 61 64 65 66 67 67 70 70 70 69 70 69 70 70 70 69 67 66
14 14 16 16 13 20 22 21 19 19 18 17 19 20 25 37 44 46 48 49 50 51 52 54 56 57 59 63 65 66 67 67 69 71 70 70 70 70 70 70 70 70 68 69
12 11 19 19 13 12 21 19 19 17 17 17 21 18 23 28 42 45 47 49 50 51 51 53 55 56 57 61 64 65 66 66 69 70 71 71 71 72 72 72 71 71 69 70
16 15 24 19 18 21 21 20 20 20 25 17 20 27 33 38 38 42 45 48 49 50 51 52 54 56 58 60 63 65 66 67 68 70 71 70 70 69 71 71 70 70 70 70
19 19 21 21 22 23 20 21 18 18 19 17 19 30 32 35 36 44 45 47 49 51 52 53 56 57 59 62 63 64 67 68 70 68 69 69 69 68 68 69 69 69 69 68
21 25 20 23 20 19 20 21 22 20 20 16 20 28 34 37 37 42 44 44 48 52 52 56 58 60 63 67 68 68 70 71 68 68 68 67 68 68 68 67 68 67 67 68
17 15 17 16 22 24 20 19 22 22 19 27 27 26 34 38 43 50 55 57 57 52 55 59 61 65 65 65 65 66 67 67 67 67 67 67 66 64 65 65 66 66 65 65
20 18 17 17 19 20 20 19 23 24 25 27 22 25 32 38 47 54 56 57 59 58 61 62 64 63 61 61 62 64 66 65 65 64 63 62 61 62 63 64 65 65 65 66
33 19 14 15 18 21 19 18 24 20 22 22 23 26 31 38 47 55 57 58 59 60 61 61 60 62 64 64 64 63 64 66 67 66 64 63 62 63 63 64 64 65 65 65
21 19 20 17 19 23 21 19 21 19 19 19 21 28 30 37 49 55 58 59 59 59 59 58 61 63 62 61 62 63 64 64 65 66 64 63 63 63 63 63 64 65 64 63
26 22 22 19 21 21 21 22 22 21 24 26 25 27 31 41 52 58 58 58 58 58 57 60 64 64 63 63 62 63 64 65 64 64 63 63 63 63 63 62 62 61 61 61
26 25 24 20 23 22 21 20 20 22 23 25 26 27 39 45 55 58 59 58 59 57 57 62 64 63 64 64 64 63 64 63 62 62 61 61 61 60 60 60 60 59 59 59
24 25 26 22 27 21 23 25 22 22 25 28 36 39 38 47 58 63 61 60 59 58 60 64 64 62 60 59 60 60 60 60 59 59 59 59 59 59 59 58 58 58 58 58
29 27 26 24 22 22 27 29 27 24 25 36 41 49 51 62 62 61 64 62 60 61 62 60 59 58 58 59 60 59 58 57 57 56 57 57 58 56 56 55 56 57 57 57
31 30 28 28 21 18 25 29 29 27 24 46 48 55 59 59 53 59 63 62 61 60 58 58 59 59 59 59 58 57 55 54 54 55 55 55 55 54 54 55 55 56 57 57
29 30 27 30 23 25 28 29 33 23 24 48 51 55 58 48 48 61 61 60 59 58 59 59 59 59 58 57 56 54 53 52 53 53 53 53 53 54 55 55 54 55 55 55
27 28 28 31 26 21 34 32 23 30 41 47 51 55 55 60 61 60 59 58 58 58 58 58 58 57 57 56 54 52 51 51 51 51 51 51 52 53 54 53 53 54 53 53
30 31 32 30 32 32 35 32 34 42 43 47 51 57 59 60 59 59 58 58 58 57 57 56 55 54 54 53 52 50 49 50 49 49 48 49 51 52 53 52 52 53 53 53
35 40 41 38 44 44 48 50 47 48 48 51 57 59 59 59 58 57 57 59 57 57 56 55 54 54 52 51 50 49 49 48 47 47 48 49 51 51 51 53 52 55 54 53
31 40 40 41 48 48 50 53 54 56 58 58 58 58 57 57 56 57 58 57 57 56 55 54 53 52 49 49 48 48 48 47 47 47 50 51 53 50 49 50 49 52 51 50
38 39 42 41 47 42 49 56 58 58 57 57 56 55 56 56 56 56 56 56 56 54 53 52 51 49 48 48 47 47 47 47 47 49 49 48 49 50 50 48 49 48 46 46

GFSCGP_sfc_dewp_165.txt.gz
Dewpoint
20 16 25 30 34 33 39 39 39 41 45 46 45 46 52 57 58 59 60 61 61 61 62 64 65 66 67 68 68 69 68 69 68 65 64 63 62 64 65 68 72 74 74 73
16 20 23 29 29 32 29 30 34 33 40 46 45 45 48 56 57 57 58 60 60 60 62 63 65 66 67 67 68 69 69 69 68 66 66 65 68 68 69 71 73 74 73 74
21 21 24 25 25 25 23 23 23 24 38 43 45 43 47 53 57 58 59 59 60 60 61 63 64 66 66 67 68 68 69 70 69 68 67 68 69 70 70 71 73 73 73 73
15 14 18 19 22 23 26 20 19 24 31 27 41 30 48 49 54 56 57 58 58 60 62 62 64 65 65 66 67 68 69 69 69 69 68 70 64 65 67 70 72 73 73 72
17 14 13 16 17 20 23 19 20 23 32 40 40 33 40 48 49 52 54 56 57 59 60 61 62 64 65 65 66 68 69 69 69 69 69 67 68 67 68 70 72 74 74 73
15 16 14 16 14 16 24 34 33 31 33 31 39 35 31 43 47 48 50 53 55 57 59 61 62 64 65 65 65 67 69 70 70 69 69 70 71 70 69 71 70 71 72 72
17 14 15 15 14 17 21 24 25 29 26 26 30 37 34 38 42 47 49 50 53 54 57 60 62 63 64 64 65 66 69 70 70 69 69 70 71 71 72 72 70 73 72 72
12 10 15 16 15 17 19 16 20 24 23 22 33 34 30 35 35 38 48 50 51 53 55 59 61 62 64 64 66 66 68 70 70 70 70 72 72 70 70 72 72 72 72 73
16 10 15 16 16 18 25 21 21 24 25 21 23 28 28 34 38 41 41 48 50 52 53 57 60 61 63 64 65 66 69 70 70 70 71 73 73 73 72 74 74 73 74 72
22 11 17 17 21 22 23 25 21 25 29 22 22 27 23 35 38 42 45 47 51 53 53 55 58 61 62 63 65 66 67 70 70 70 71 71 73 74 74 74 74 73 73 72
21 23 22 24 21 19 23 23 26 24 26 21 20 22 38 42 42 43 44 48 52 54 54 54 55 59 62 62 63 66 67 69 70 71 72 72 73 73 74 73 72 71 70 69
24 23 23 20 24 23 22 22 26 22 32 29 25 21 32 40 41 44 43 50 52 53 54 56 56 58 61 62 63 64 67 69 71 71 72 73 72 72 71 71 70 69 68 68
25 22 19 21 20 25 23 26 28 33 33 35 23 22 35 41 44 47 48 48 54 55 56 58 60 60 62 63 65 66 68 69 71 72 72 72 71 69 68 68 68 68 68 68
33 26 26 12 19 24 26 23 27 24 27 29 25 27 38 42 46 50 55 57 57 58 60 61 63 66 66 67 68 69 70 71 71 71 71 70 68 68 67 68 68 68 68 67
29 30 28 23 19 21 22 22 24 26 27 24 26 30 35 47 50 52 57 60 60 61 62 63 64 66 67 68 70 70 70 70 70 69 68 68 68 68 68 66 66 66 66 64
28 34 31 25 19 19 18 17 24 24 25 26 25 30 35 46 52 55 57 59 60 61 62 63 64 66 67 68 68 67 67 68 69 68 67 67 66 65 65 64 64 64 63 63
29 31 32 25 23 22 21 22 22 25 27 25 27 32 40 46 50 53 57 59 60 61 63 64 64 66 65 65 66 66 67 67 66 65 64 64 63 62 61 61 61 61 62 63
35 40 34 24 30 22 25 26 23 24 25 27 32 36 41 45 50 52 59 59 60 61 63 64 64 64 65 65 66 66 64 64 62 62 61 61 61 60 60 60 61 61 61 62
25 31 30 28 23 24 25 29 27 27 30 32 34 39 41 53 57 59 60 61 61 63 64 64 64 64 65 65 65 63 62 61 60 59 58 58 59 59 59 59 61 61 60 60
26 37 23 32 25 23 28 27 33 32 29 39 38 43 51 55 45 49 61 61 62 65 65 64 64 64 64 63 62 61 59 58 56 56 57 58 59 59 59 59 60 61 59 59
28 30 25 25 29 27 35 32 33 30 34 44 40 48 55 50 53 60 62 61 64 65 64 64 63 63 62 61 60 58 57 55 55 56 57 57 58 59 59 60 60 59 58 57
31 31 26 31 28 28 36 34 32 44 48 46 47 53 59 58 62 62 61 63 64 62 62 62 61 60 60 59 58 57 55 55 56 56 56 57 58 57 57 59 59 59 58 56
30 34 32 35 28 49 40 44 45 44 49 49 53 54 58 60 61 62 62 62 62 61 61 60 59 58 57 57 57 55 54 55 55 56 57 57 57 56 56 56 55 53 53 51
40 41 34 38 43 42 42 44 51 46 45 51 51 57 59 60 62 61 61 61 61 60 59 58 57 55 55 55 55 54 54 54 55 56 56 55 55 54 53 50 49 49 49 48
36 44 46 43 46 49 49 52 49 50 54 55 57 59 60 62 61 61 61 61 60 59 58 57 55 54 54 53 52 52 53 54 53 54 54 54 52 53 52 51 48 48 51 46
36 45 37 34 52 52 51 55 55 55 56 58 59 61 62 61 61 60 60 59 59 58 57 55 54 52 51 51 51 53 54 54 53 52 51 49 46 46 47 47 44 46 46 44